Back to catalog

TITAN 34D TRANSTAGE R/B

AliveGTO
NORAD 19490·ROCKET BODY·🇺🇸 United States

Launched Sep 2, 1988 from Cape Canaveral Space Force Station

Loading…

TLE

AgingSource: Space-Track

Epoch: Sep 14, 2026, 11:00 UTC

1 19490U 88077C   26257.45874052 -.00000384  00000-0 -21979-2 0  9997
2 19490  27.1149  55.0368 7382660  17.1062 358.1390  2.04327869 54239

Track TITAN 34D TRANSTAGE R/B in real time with AllMySat

Download on the App Store